Regional Weather Roundup
Issued by NWS

Home | Current Version | Previous Version | Graphics & Text | Print | Product List | Glossary On
Versions: 1 2 3 4 5 6 7 8 9 10 11 12 13 14 15 16 17 18 19 20 21 22 23 24 25 26 27 28 29 30 31 32 33 34 35 36 37 38 39 40 41 42 43 44 45 46 47 48 49 50
000
ASUS43 KLMK 241710
RWRKY
KENTUCKY REGIONAL WEATHER ROUNDUP
NATIONAL WEATHER SERVICE LOUISVILLE KY
100 PM EDT WED MAY 24 2017

NOTE "FAIR" INDICATES FEW OR NO CLOUDS BELOW 12,000 FEET
WITH NO SIGNIFICANT WEATHER AND/OR OBSTRUCTIONS TO VISIBILITY.

KYZ001>023-026-027-061>063-070>075-241800-
WESTERN AND SOUTH CENTRAL KENTUCKY

CITY           SKY/WX    TMP DP  RH WIND       PRES   REMARKS
PADUCAH        LGT RAIN  62  52  69 NW8       29.53R
HENDERSON      RAIN      59  57  93 NW13      29.49S
OWENSBORO      RAIN      59  57  93 N7        29.47S FOG
HOPKINSVILLE   LGT RAIN  57  57 100 NW15      29.48S
BOWLING GREEN  LGT RAIN  61  60  97 VRB3      29.43S FOG
GLASGOW        CLOUDY    65  58  79 NE7       29.41F
$$

KYZ024-025-028>034-038-045-046-053-241800-
NORTH CENTRAL KENTUCKY

CITY           SKY/WX    TMP DP  RH WIND       PRES   REMARKS
LOUISVILLE/SDF CLOUDY    65  58  78 N10       29.44F
LOUISVILLE/LOU CLOUDY    63  59  87 N8        29.45F
FORT KNOX      LGT RAIN  61  57  88 NE8       29.42F
$$

KYZ035>037-039>044-047>052-055>060-089>105-241800-
NORTHEAST KENTUCKY

CITY           SKY/WX    TMP DP  RH WIND       PRES   REMARKS
LEXINGTON      LGT RAIN  66  61  84 E12       29.45F
COVINGTON      CLOUDY    66  61  84 SE10      29.46F
FRANKFORT      PTSUNNY   65  61  87 SE6       29.43F
$$

KYZ054-064>069-076>088-106>120-241800-
SOUTHEAST KENTUCKY

CITY           SKY/WX    TMP DP  RH WIND       PRES   REMARKS
JACKSON        RAIN      61  61 100 CALM      29.51F VSB 1/2
LONDON         PTSUNNY   63  60  90 E10       29.45F
SOMERSET       CLOUDY    64  61  88 E8        29.45F
MIDDLESBORO    LGT RAIN  62  62 100 CALM      29.50F
MONTICELLO     CLOUDY    67  62  84 E8        29.46F
$$





USA.gov is the U.S. government's official web portal to all federal, state and local government web resources and services.